[[{"header":{"parameterUnit":"m.s-1","parameterCategory":1,"la1":30.2991,"la2":30.254,"lo1":-89.0895,"lo2":-89.0444,"dy":0.0017,"dx":0.0017,"nx":28,"ny":28,"refTime":"2023-07-19T21:00:00:Z","depth":0,"parameterNumber":2,"parameterNumberName":"U-component_of_WINDS"},"data":[0,0,0,0,0,0,0,0,0,0,0,0,0,0,0,0,0,0,0,0,0,0,0,0,0,0,0,0,0,0,0,0,0,0,0,0,0,0,0,0,0,0,0,0,0,0,0,0,0,0,0,0,0,0,0,0,0,0,4.9447,4.9448,0,4.9509,4.9509,4.951,4.9416,4.9412,4.9409,4.9406,4.9469,4.9474,4.9479,0,0,0,0,0,0,0,0,0,0,0,0,0,4.9246,4.9251,4.9447,4.9448,4.9449,4.9508,4.9509,4.951,4.9416,4.9412,4.9408,4.9404,4.9468,4.9473,4.9479,0,0,0,0,0,0,0,0,0,0,0,0,0,4.9323,4.9252,4.9447,4.9409,4.9406,4.9508,4.9509,4.951,4.9417,4.9412,4.9407,4.9403,4.9466,4.9473,4.948,4.9622,0,0,4.9501,4.9505,0,0,0,0,0,0,0,0,4.9319,4.9331,4.9414,4.9412,4.9409,4.9449,4.9461,4.9548,4.9418,4.9413,4.9406,4.94,4.9467,4.9473,4.9496,4.9625,4.9628,4.9502,4.9506,4.9509,4.9511,0,0,0,0,0,0,0,4.9314,4.9328,4.9471,4.9415,4.9412,4.9388,4.9394,4.9477,4.9467,4.9413,4.9406,4.9415,4.9464,4.9489,4.9496,4.9629,4.9502,4.9508,4.9513,4.9515,4.9872,4.9877,0,0,0,0,0,0,4.9313,4.9324,4.9469,4.9473,4.9351,4.9396,4.9402,4.9441,4.9465,4.9464,4.9419,4.941,4.9479,4.9488,4.9498,4.9662,4.9509,4.9516,4.952,4.9867,4.9873,4.9879,0,0,0,0,0,0,4.9309,4.9327,4.9467,4.9397,4.9413,4.9404,4.945,4.9445,4.947,4.947,4.9467,4.9446,4.9476,4.9488,4.9591,4.9663,4.9519,4.9526,4.9861,4.9869,4.9876,4.9995,0,0,0,0,0,0,4.9304,4.9326,4.9381,4.9399,4.9417,4.956,4.9454,4.945,4.9482,4.9471,4.9495,4.9494,4.9473,4.9581,4.9598,4.9671,4.9531,4.9854,4.9865,4.9874,4.9984,5.0006,5.0024,0,0,0,0,0,4.9297,4.9413,4.9385,4.9403,4.9485,4.9564,4.9574,4.9547,4.9489,4.9542,4.9542,4.9493,4.9653,4.9592,4.961,4.9687,4.985,4.9862,4.9873,4.9975,5.0001,5.0023,0,0,0,0,0,0,4.9406,4.9415,4.9383,4.9509,4.9536,4.9548,4.9616,4.9577,4.9622,4.961,4.9574,4.958,4.9689,4.9699,4.963,4.9823,4.9741,4.9757,4.9813,4.9838,4.9857,4.9851,4.9537,0,0,0,0,0,4.9445,4.9508,4.9513,4.9623,4.9638,4.9625,4.9658,4.9634,4.9662,4.9673,4.968,4.9708,4.9764,4.9802,4.9854,4.9986,4.9987,5.0047,5.0067,5.0083,5.0096,5.0162,5.0188,4.9918,4.9917,4.9917,0,0,4.9525,4.9538,4.958,4.9645,4.9663,4.9728,4.9635,4.9709,4.9756,4.9684,4.978,4.9786,4.9815,4.9931,4.9983,4.9942,5.0171,5.0098,5.0111,5.0115,5.0177,5.0203,5.0225,4.9926,4.9924,4.9923,0,0,4.9704,4.9722,4.9813,4.9832,4.9861,4.985,4.9873,4.989,4.989,4.9986,4.9932,4.9988,5.0086,5.0107,5.0131,5.0314,5.0269,5.0332,5.0435,5.05,5.0521,5.0539,5.0601,5.0624,5.0346,5.0346,5.0347,0,4.98,4.9896,4.9865,4.9941,4.9969,4.9906,4.9996,5.0017,5.0062,5.0082,5.0036,5.0155,5.0171,5.0289,5.0333,5.0356,5.0377,5.0328,5.052,5.0539,5.0556,5.0614,5.0637,5.0353,5.0353,5.0352,5.0351,0,5.0011,5.0078,5.0149,5.0191,5.0227,5.0311,5.0291,5.0331,5.0304,5.0298,5.0394,5.041,5.0462,5.0489,5.0464,5.0603,5.0576,5.0526,5.0443,5.0589,5.0643,5.0665,5.0364,5.0361,5.0359,5.0357,0,0,5.0261,5.0282,5.0308,5.0324,5.035,5.0401,5.048,5.0529,5.0563,5.0596,5.0659,5.0742,5.0695,5.0722,5.0699,5.0756,5.0894,5.0698,5.0698,5.0731,5.1043,5.1078,5.1105,5.0866,5.087,5.0874,5.104,0,5.0436,5.0572,5.0544,5.0677,5.0736,5.0675,5.0744,5.0766,5.0762,5.0811,5.0807,5.0864,5.08,5.0815,5.0869,5.0866,5.0956,5.0854,5.0922,5.0925,5.0914,5.1134,5.1172,5.1328,5.1061,5.1065,5.1067,0,5.0659,5.0696,5.0834,5.0845,5.0869,5.0932,5.0972,5.1021,5.1044,5.1037,5.1065,5.103,5.1106,5.1024,5.1127,5.1058,5.1084,5.1087,5.1092,5.1095,5.1003,5.1139,5.1378,5.14,5.1101,5.1098,5.1096,0,5.0822,5.0908,5.1,5.1017,5.1034,5.1078,5.1087,5.1104,5.1135,5.1171,5.1189,5.1234,5.1258,5.1294,5.127,5.1213,5.1376,5.1293,5.137,5.1371,5.1405,5.1403,5.1648,5.1428,5.1428,5.1427,5.1427,0,5.1018,5.1104,5.1073,5.113,5.1223,5.119,5.1283,5.1285,5.13,5.1355,5.1306,5.1358,5.1326,5.1376,5.1359,5.1444,5.1457,5.1451,5.1445,5.1453,5.1454,5.1468,5.1455,5.1434,5.1432,5.1431,5.143,0,5.1216,5.1199,5.1295,5.1302,5.1305,5.1373,5.1378,5.143,5.1422,5.1491,5.1505,5.1492,5.1547,5.1528,5.1588,5.1576,5.1684,5.1666,5.1676,5.167,5.1746,5.1738,5.2007,5.2038,5.1802,5.1804,5.1806,0,5.1341,5.1405,5.1418,5.145,5.1462,5.1516,5.1545,5.1514,5.1547,5.1575,5.1623,5.1673,5.1711,5.1802,5.1797,5.1841,5.1821,5.1912,5.1828,5.1833,5.1818,5.1813,5.1817,5.1928,5.1931,5.1933,5.1935,0,5.1564,5.1551,5.1595,5.1635,5.1671,5.1702,5.1728,5.1758,5.1728,5.1767,5.1821,5.1851,5.191,5.1959,5.1998,5.2007,5.1965,5.1962,5.1981,5.1989,5.1991,5.1987,5.1718,5.1956,5.1954,5.1952,5.1951,5.195,5.1726,5.1778,5.1793,5.1843,5.1859,5.1884,5.1931,5.1927,5.1972,5.2016,5.1996,5.2058,5.2076,5.2123,5.2137,5.2184,5.2149,5.2178,5.2185,5.2192,5.2199,5.1986,5.2192,5.2191,5.2191,5.219,5.219,0,5.1942,5.1948,5.1994,5.203,5.2069,5.2026,5.2052,5.2087,5.2141,5.2161,5.2199,5.2259,5.2306,5.2305,5.2347,5.2385,5.2367,5.2397,5.2392,5.2394,5.2231,5.2208,5.2411,5.2411,5.2411,5.2411,5.2411,5.241,5.2058,5.2143,5.2131,5.2222,5.2227,5.2287,5.2304,5.2326,5.2341,5.241,5.2448,5.2446,5.2456,5.2499,5.2539,5.2537,5.2553,5.259,5.2581,5.2428,5.2406,5.2385,5.2363,5.2595,5.2595,5.2739,5.274,5.2741]},{"header":{"parameterUnit":"m.s-1","parameterCategory":1,"la1":30.2991,"la2":30.254,"lo1":-89.0895,"lo2":-89.0444,"dy":0.0017,"dx":0.0017,"nx":28,"ny":28,"refTime":"2023-07-19T21:00:00:Z","depth":0,"parameterNumber":3,"parameterNumberName":"V-component_of_WINDS"},"data":[0,0,0,0,0,0,0,0,0,0,0,0,0,0,0,0,0,0,0,0,0,0,0,0,0,0,0,0,0,0,0,0,0,0,0,0,0,0,0,0,0,0,0,0,0,0,0,0,0,0,0,0,0,0,0,0,0,0,1.4046,1.4046,0,1.4046,1.4046,1.4046,1.401,1.4009,1.4008,1.4007,1.4009,1.401,1.401,0,0,0,0,0,0,0,0,0,0,0,0,0,1.4016,1.4016,1.4046,1.4046,1.4046,1.4046,1.4046,1.4046,1.401,1.4009,1.4008,1.4007,1.4008,1.4009,1.4011,0,0,0,0,0,0,0,0,0,0,0,0,0,1.4024,1.4017,1.4046,1.4028,1.4026,1.4046,1.4046,1.4046,1.401,1.4009,1.4007,1.4006,1.4008,1.4009,1.4011,1.4048,0,0,1.4015,1.4016,0,0,0,0,0,0,0,0,1.4023,1.4025,1.4031,1.4029,1.4028,1.4026,1.4036,1.4046,1.4011,1.4017,1.4007,1.4005,1.4016,1.4016,1.402,1.4048,1.4048,1.4015,1.4016,1.4017,1.4017,0,0,0,0,0,0,0,1.4023,1.4025,1.4046,1.4031,1.4029,1.402,1.402,1.4037,1.4024,1.4016,1.4013,1.4014,1.4015,1.4018,1.4019,1.4048,1.4015,1.4016,1.4017,1.4018,1.4104,1.4106,0,0,0,0,0,0,1.4024,1.4024,1.4046,1.4046,1.4022,1.4022,1.4021,1.4028,1.4024,1.4022,1.4015,1.4012,1.4017,1.4018,1.4019,1.4061,1.4017,1.4018,1.4019,1.4103,1.4105,1.4106,0,0,0,0,0,0,1.4024,1.4027,1.4046,1.4034,1.4036,1.4024,1.4032,1.4029,1.4033,1.4023,1.4021,1.4021,1.4016,1.4017,1.404,1.4061,1.4018,1.402,1.4101,1.4103,1.4105,1.4146,0,0,0,0,0,0,1.4023,1.4027,1.4041,1.4035,1.4037,1.4067,1.4033,1.403,1.4035,1.4031,1.4028,1.4026,1.4015,1.4038,1.4042,1.4062,1.4021,1.4099,1.4102,1.4105,1.4143,1.4149,1.4155,0,0,0,0,0,1.4022,1.4053,1.4042,1.4045,1.4054,1.4068,1.407,1.4055,1.4037,1.405,1.4044,1.4026,1.4058,1.4041,1.4044,1.4065,1.4098,1.4101,1.4105,1.414,1.4148,1.4155,0,0,0,0,0,0,1.4063,1.4052,1.4039,1.4069,1.407,1.4062,1.408,1.4064,1.407,1.4067,1.4049,1.4048,1.4074,1.4072,1.4053,1.41,1.4075,1.4079,1.41,1.4108,1.4114,1.4114,1.4022,0,0,0,0,0,1.4075,1.4087,1.4077,1.4104,1.4105,1.4092,1.4098,1.4086,1.4087,1.4087,1.4082,1.4084,1.4093,1.4101,1.4109,1.4142,1.414,1.4158,1.4164,1.4169,1.4173,1.4189,1.4196,1.4117,1.4117,1.4117,0,0,1.4101,1.4097,1.4106,1.4112,1.4112,1.4124,1.4093,1.4108,1.4118,1.409,1.4111,1.4107,1.4107,1.4135,1.4147,1.4134,1.4194,1.4173,1.4177,1.4178,1.4193,1.42,1.4207,1.4119,1.4119,1.4119,0,0,1.4155,1.4153,1.4174,1.4174,1.4172,1.4163,1.4168,1.4162,1.4159,1.4179,1.4158,1.4168,1.4186,1.4187,1.4189,1.424,1.4224,1.4244,1.4276,1.4291,1.4297,1.4303,1.432,1.4327,1.4248,1.4248,1.4248,0,1.4187,1.4205,1.4188,1.4204,1.4207,1.4181,1.4202,1.4202,1.4204,1.4207,1.4192,1.4213,1.4211,1.4238,1.425,1.4253,1.4258,1.4244,1.4298,1.4303,1.4308,1.4324,1.4331,1.425,1.425,1.425,1.4249,0,1.4245,1.4258,1.4275,1.4276,1.4281,1.43,1.4285,1.4293,1.428,1.4272,1.4293,1.4289,1.4296,1.4302,1.429,1.4326,1.4318,1.4301,1.4275,1.4318,1.4333,1.434,1.4254,1.4253,1.4252,1.4251,0,0,1.4326,1.4315,1.4322,1.4321,1.4316,1.4326,1.4343,1.4349,1.4355,1.4357,1.437,1.4385,1.4368,1.4371,1.4359,1.4373,1.4412,1.4354,1.4353,1.4364,1.4451,1.4464,1.4471,1.4401,1.4402,1.4403,1.445,0,1.4377,1.4405,1.4389,1.4419,1.443,1.4404,1.4419,1.4418,1.441,1.4419,1.4411,1.4421,1.4399,1.44,1.4412,1.4405,1.4429,1.4401,1.4414,1.4414,1.4414,1.4479,1.4493,1.4538,1.4456,1.4457,1.4458,0,1.4441,1.4444,1.4475,1.4466,1.447,1.4484,1.4487,1.4495,1.4492,1.4486,1.4488,1.4472,1.4488,1.4462,1.4483,1.4465,1.4468,1.4465,1.4467,1.4467,1.4439,1.4481,1.4552,1.4559,1.4467,1.4467,1.4466,0,1.4496,1.4508,1.4527,1.4528,1.4518,1.4528,1.4525,1.4521,1.4524,1.4527,1.4529,1.4534,1.4537,1.4541,1.4526,1.4509,1.4549,1.4522,1.4544,1.4544,1.4554,1.4554,1.4626,1.4557,1.4557,1.4557,1.4557,0,1.4555,1.4575,1.4551,1.4564,1.4585,1.4565,1.4587,1.4581,1.4577,1.4588,1.4566,1.4576,1.4556,1.4564,1.4553,1.4572,1.4574,1.4569,1.4566,1.4571,1.4571,1.4573,1.457,1.4558,1.4558,1.4558,1.4557,0,1.462,1.4605,1.4625,1.4614,1.4611,1.4627,1.4618,1.4628,1.4619,1.4632,1.4634,1.4619,1.4628,1.4613,1.462,1.4613,1.4638,1.4631,1.4639,1.4637,1.4659,1.4657,1.4736,1.4745,1.467,1.467,1.4671,0,1.4659,1.4673,1.4663,1.4668,1.4665,1.4674,1.4677,1.4658,1.4662,1.4659,1.467,1.4676,1.468,1.4694,1.4684,1.4689,1.4681,1.4708,1.4682,1.4686,1.4681,1.468,1.4681,1.4714,1.4715,1.4715,1.4716,0,1.4729,1.472,1.4725,1.4727,1.4731,1.4732,1.4732,1.4737,1.4716,1.4722,1.473,1.4733,1.4738,1.4745,1.4747,1.4743,1.4726,1.4724,1.4729,1.4735,1.4739,1.4736,1.4654,1.4723,1.4722,1.4721,1.4721,1.4721,1.4782,1.4792,1.4786,1.4792,1.4789,1.4789,1.4797,1.4788,1.4794,1.4796,1.4785,1.4795,1.479,1.4791,1.4789,1.4797,1.4785,1.4793,1.4794,1.4797,1.48,1.4737,1.4797,1.4797,1.4797,1.4797,1.4796,0,1.485,1.4844,1.4849,1.4848,1.4852,1.4834,1.4832,1.4837,1.4846,1.4843,1.4846,1.4854,1.486,1.485,1.4853,1.4861,1.4853,1.4863,1.4862,1.4861,1.4811,1.4806,1.4869,1.4869,1.4869,1.4869,1.4869,1.4869,1.4886,1.4903,1.4893,1.4908,1.4902,1.4911,1.4911,1.491,1.4907,1.4917,1.492,1.4913,1.4907,1.491,1.4914,1.491,1.4913,1.4925,1.4919,1.4872,1.4865,1.4858,1.4853,1.4926,1.4926,1.4969,1.4969,1.497]}]]